Location: Camerons Lookout
(40.9833°S, 175.9333°E)
Time: 20:38:34
(UTC+00:00)

In-Cosmos 22 Rocket - Pass Details

Date: 14 January 2026
Orbit: 790 x 885 km, 81.2° (Epoch: 17 February)

Event Time Altitude Azimuth Distance (km) Brightness Sun altitude
Rises 08:26:16 0° 191° (S) 3,463 8.2 -6.7°
Reaches altitude 10° 08:28:45 10° 190° (S) 2,506 7.4 -7.1°
Maximum altitude 08:34:27 87° 277° (W) 848 4.3 -7.9°
Drops below altitude 10° 08:39:55 10° 6° (N) 2,409 6.2 -8.7°
Enters shadow 08:42:11 - 6° (N) 3,293 6.9 -9.1°
